1508943600.65,64319,11.06,74138.8,2.03,1.09,1.09,0,*75
1508943601.88,64320,11.06,74136.0,2.01,1.05,1.13,0,*7A
1508943603.14,64321,11.06,74134.0,2.01,1.13,1.21,0,*7D
1508943604.38,64322,11.06,74136.8,2.03,1.21,1.29,0,*75
1508943605.64,64323,11.06,74134.0,2.01,1.17,1.25,0,*7F
1508943606.84,64324,11.06,74140.3,2.01,1.01,1.05,0,*7D
1508943608.05,64325,11.06,74140.5,2.03,0.97,1.09,0,*4C
1508943609.28,64326,11.06,74138.5,2.01,0.91,1.05,0,*47
1508943610.51,64327,11.06,74136.0,2.01,0.83,0.95,0,*7D
1508943611.71,64328,11.06,74140.3,2.03,0.95,1.05,0,*4F
1508943612.93,64329,11.06,74140.8,2.03,0.95,0.95,0,*76
1508943614.12,64330,11.06,74140.5,2.03,0.87,0.97,0,*7F
1508943615.35,64331,11.06,74142.8,2.03,0.87,0.87,0,*7F
1508943616.57,64332,11.06,74144.5,2.03,0.83,0.87,0,*78
1508943617.79,64333,11.06,74144.3,2.03,0.63,0.87,0,*77
1508943619.02,64334,11.06,74146.3,2.01,0.29,0.67,0,*72
1508943620.26,64335,11.06,74140.3,2.01,0.33,0.59,0,*75
1508943621.5,64336,11.06,74138.0,2.01,0.59,0.67,0,*77
1508943622.71,64337,11.06,74116.3,2.01,0.33,0.43,0,*7C
1508943623.93,64338,11.06,74128.0,2.01,0.09,0.55,0,*4D
1508943625.15,64339,11.06,74134.0,2.03,0.25,0.59,0,*7C
1508943626.37,64340,11.06,74130.5,2.03,0.33,0.71,0,*7F
1508943627.61,64341,11.06,74136.5,2.01,0.29,0.71,0,*77
1508943628.84,64342,11.06,74144.0,2.01,0.41,0.95,0,*70
1508943630.07,64343,11.06,74144.3,2.01,0.33,0.95,0,*74
1508943631.28,64344,11.06,74134.8,2.03,0.33,0.95,0,*71
1508943632.49,64345,11.06,74134.0,2.01,0.43,1.13,0,*4A
1508943633.72,64346,11.06,74140.3,2.03,0.59,1.21,0,*41
1508943634.93,64347,11.06,74142.8,2.03,0.67,1.13,0,*4C
1508943636.16,64348,11.06,74146.5,2.03,0.95,1.17,0,*4A
1508943637.38,64349,11.06,74144.8,2.03,0.95,1.21,0,*4E
1508943638.59,64350,11.06,74148.0,2.03,1.05,1.29,0,*76
1508943639.83,64351,11.06,74150.3,2.03,1.29,1.29,0,*79
1508943641.06,64352,11.06,74146.5,2.03,1.29,1.29,0,*7A
1508943642.3,64353,11.06,74148.5,2.03,1.17,1.21,0,*7E
1508943643.54,64354,11.06,74144.3,2.03,1.09,1.21,0,*76
1508943644.78,64355,11.06,74144.5,2.03,1.09,1.09,0,*7D
1508943646.02,64356,11.06,74144.5,2.03,1.29,1.21,0,*76
1508943647.25,64357,11.06,74154.3,2.03,1.29,1.29,0,*7F
1508943648.49,64358,11.06,74148.5,2.03,1.17,1.29,0,*7D
1508943649.7,64359,11.06,74146.0,2.03,1.05,1.17,0,*72
1508943650.93,64360,11.06,74154.8,2.03,1.09,1.17,0,*74
1508943652.16,64361,11.06,74154.8,2.05,1.05,1.17,0,*7F
1508943653.38,64362,11.06,74144.0,2.05,0.95,1.05,0,*47
1508943654.6,64363,11.06,74150.3,2.05,0.87,0.97,0,*7F
1508943655.81,64364,11.06,74148.3,2.03,1.05,1.17,0,*7C
1508943657.02,64365,11.06,74150.3,2.03,1.05,1.09,0,*72
1508943658.22,64366,11.06,74148.5,2.03,0.97,1.09,0,*4B
1508943659.48,64367,11.06,74152.3,2.05,0.87,1.09,0,*4D
1508943660.73,64368,11.06,74152.3,2.05,0.87,1.09,0,*42
1508943661.98,64369,11.06,74150.0,2.05,0.87,1.17,0,*4C
1508943663.23,64370,11.06,74150.8,2.05,0.95,1.09,0,*48
1508943664.45,64371,11.06,74144.0,2.05,0.83,0.97,0,*78
1508943665.64,64372,11.06,74144.8,2.07,0.91,0.97,0,*7A
1508943666.88,64373,11.06,74144.0,2.05,0.75,0.87,0,*72
1508943668.13,64374,11.06,74146.3,2.05,0.87,0.95,0,*7B
1508943669.38,64375,11.06,74148.0,2.05,0.87,1.09,0,*4E
1508943670.6,64376,11.06,74150.3,2.07,0.87,1.09,0,*4F
1508943671.85,64377,11.06,74146.3,2.05,0.87,0.95,0,*78
1508943673.09,64378,11.06,74142.5,2.05,0.59,0.75,0,*7A
1508943674.33,64379,11.06,74138.5,2.05,0.33,0.75,0,*77
1508943675.51,64380,11.06,74152.8,2.07,0.05,0.67,0,*45
1508943676.75,64381,11.06,74144.3,2.05,0.13,0.83,0,*7B
1508943677.97,64382,11.06,74136.0,2.05,0.09,0.87,0,*47
1508943679.2,64383,11.06,74136.5,2.05,-0.11,0.51,0,*59
1508943680.45,64384,11.06,74130.0,2.05,0.25,0.83,0,*7B
1508943681.68,64385,11.06,74136.3,2.05,0.59,0.95,0,*76
1508943682.92,64386,11.06,74140.8,2.05,0.59,0.95,0,*75
1508943684.13,64387,11.06,74140.5,2.03,0.63,0.87,0,*78
1508943685.38,64388,11.06,74144.0,2.05,0.75,0.87,0,*76
1508943686.62,64389,11.06,74146.3,2.05,0.63,0.87,0,*70
1508943687.81,64390,11.06,74136.0,2.03,0.83,0.97,0,*71
1508943689.01,64391,11.06,74138.5,2.03,0.95,1.05,0,*4D
1508943690.25,64392,11.06,74138.3,2.01,0.83,0.95,0,*73
1508943691.49,64393,11.06,74142.8,2.01,0.79,0.71,0,*7D
1508943692.72,64394,11.06,74138.5,2.03,0.83,0.87,0,*74
1508943693.94,64395,11.06,74150.5,2.03,0.75,0.87,0,*7C
1508943695.16,64396,11.06,74148.3,2.03,0.83,0.83,0,*72
1508943696.36,64397,11.06,74136.0,2.03,0.83,1.05,0,*4C
1508943697.57,64398,11.06,74138.5,2.03,1.05,1.21,0,*7A
1508943698.81,64399,11.06,74138.5,2.03,1.09,1.21,0,*77
1508943700.01,64400,11.06,74138.0,2.03,1.05,1.09,0,*76
1508943701.25,64401,11.06,74134.3,2.03,1.13,1.17,0,*7F
1508943702.48,64402,11.06,74130.3,2.01,1.01,1.13,0,*79
1508943703.72,64403,11.06,74134.3,2.03,1.21,1.29,0,*71
1508943704.96,64404,11.06,74138.3,2.03,1.29,1.29,0,*7E
1508943706.19,64405,11.06,74140.5,2.03,1.17,1.29,0,*72
1508943707.43,64406,11.06,74142.3,2.03,1.21,1.29,0,*74
1508943708.67,64407,11.06,74140.5,2.03,1.29,1.29,0,*7D
1508943709.91,64408,11.06,74146.3,2.03,1.29,1.37,0,*7D
1508943711.15,64409,11.06,74146.0,2.03,1.21,1.33,0,*70
1508943712.39,64410,11.06,74142.8,2.03,1.29,1.33,0,*70
1508943713.62,64411,11.06,74142.8,2.03,1.25,1.37,0,*79
1508943714.86,64412,11.06,74134.8,2.03,1.21,1.33,0,*7A
1508943716.1,64413,11.06,74138.0,2.03,1.29,1.33,0,*73
1508943717.37,64414,11.06,74140.0,2.05,1.29,1.33,0,*72
1508943718.63,64415,11.06,74140.3,2.05,1.33,1.33,0,*78
1508943719.9,64416,11.06,74132.5,2.05,1.29,1.33,0,*70
1508943721.13,64417,11.06,74126.0,2.03,1.09,1.09,0,*7C
1508943722.39,64418,11.06,74108.8,2.05,1.09,1.09,0,*75
1508943723.63,64419,11.06,74116.8,2.07,1.13,1.13,0,*76
1508943724.89,64420,11.06,74100.0,2.05,1.21,1.21,0,*7E
1508943726.16,64421,11.06,74100.0,2.05,1.21,1.21,0,*7F
1508943727.39,64422,11.06,74126.0,2.05,1.05,1.17,0,*7F
1508943728.65,64423,11.06,74122.5,2.05,1.09,1.17,0,*72
1508943729.91,64424,11.06,74124.3,2.05,1.09,1.17,0,*75
1508943731.17,64425,11.06,74130.3,2.05,1.21,1.21,0,*7B
1508943732.44,64426,11.06,74130.8,2.05,1.17,1.21,0,*7D
1508943733.7,64427,11.06,74128.3,2.05,1.09,1.21,0,*73
1508943734.93,64428,11.06,74132.5,2.05,0.97,1.09,0,*40
1508943736.18,64429,11.06,74140.3,2.05,0.87,0.87,0,*77
1508943737.43,64430,11.06,74146.3,2.05,0.83,0.83,0,*7F
1508943738.67,64431,11.06,74152.3,2.05,0.75,0.75,0,*7E
1508943739.91,64432,11.06,74150.0,2.05,0.51,0.71,0,*7F
1508943741.13,64433,11.06,74150.3,2.03,0.21,0.71,0,*7F
1508943742.32,64434,11.06,74150.0,2.03,0.51,1.05,0,*4D
1508943743.54,64435,11.06,74132.0,2.05,0.71,0.97,0,*72
1508943744.79,64436,11.06,74130.3,2.05,0.83,1.17,0,*45
1508943746.01,64437,11.06,74114.8,2.05,0.71,1.05,0,*4A
1508943747.26,64438,11.06,74112.3,2.05,0.83,1.17,0,*4B
1508943748.49,64439,11.06,74126.5,2.07,1.09,1.33,0,*7D
1508943749.72,64440,11.06,74122.0,2.05,0.97,1.21,0,*44
1508943750.98,64441,11.06,74124.3,2.05,1.09,1.21,0,*73
1508943752.24,64442,11.06,74132.3,2.05,1.09,1.21,0,*70
1508943753.48,64443,11.06,74136.3,2.05,1.05,1.17,0,*78
1508943754.7,64444,11.06,74134.3,2.07,1.09,1.25,0,*70
1508943755.93,64445,11.06,74128.3,2.07,1.09,1.25,0,*71
1508943757.17,64446,11.06,74130.0,2.07,1.13,1.33,0,*7E
1508943758.4,64447,11.06,74140.3,2.07,1.21,1.33,0,*7E
1508943759.64,64448,11.06,74146.5,2.07,1.21,1.25,0,*76
1508943760.87,64449,11.06,74140.5,2.07,1.13,1.25,0,*76
1508943762.04,64450,11.06,74132.5,2.07,0.97,1.05,0,*41
1508943763.26,64451,11.06,74150.0,2.07,0.87,1.09,0,*4D
1508943764.48,64452,11.06,74156.5,2.05,0.87,0.97,0,*7A
1508943765.69,64453,11.06,74158.5,2.07,0.67,0.87,0,*76
1508943766.91,64454,11.06,74154.3,2.07,0.55,0.79,0,*71
1508943768.12,64455,11.06,74152.5,2.07,0.63,0.91,0,*73
1508943769.34,64456,11.06,74156.0,2.05,0.71,1.05,0,*4D
1508943770.53,64457,11.06,74148.5,2.07,0.67,1.01,0,*4D
1508943771.71,64458,11.06,74150.8,2.07,0.67,1.01,0,*42
1508943772.92,64459,11.06,74154.5,2.05,0.63,0.97,0,*7B
1508943774.14,64460,11.06,74152.3,2.05,0.71,1.05,0,*48
1508943775.4,64461,11.06,74152.3,2.05,0.87,1.17,0,*43
1508943776.6,64462,11.06,74148.3,2.07,1.01,1.33,0,*7B
1508943777.83,64463,11.06,74148.5,2.07,1.21,1.33,0,*78
1508943779.1,64464,11.06,74144.3,2.05,1.29,1.29,0,*7E
1508943780.36,64465,11.06,74144.8,2.05,1.21,1.33,0,*7C
1508943781.62,64466,11.06,74142.8,2.05,1.17,1.29,0,*71
1508943782.84,64467,11.06,74144.5,2.07,1.25,1.25,0,*7F
1508943784.08,64468,11.06,74144.3,2.07,1.33,1.37,0,*74
1508943785.32,64469,11.06,74146.3,2.07,1.33,1.37,0,*75
1508943786.58,64470,11.06,74142.3,2.05,1.21,1.29,0,*73
1508943787.81,64471,11.06,74142.8,2.11,1.25,1.37,0,*7C
1508943789.05,64472,11.06,74140.8,2.07,1.13,1.13,0,*7B
1508943790.28,64473,11.06,74140.3,2.07,1.21,1.25,0,*7E
1508943791.54,64474,11.06,74136.0,2.05,1.29,1.33,0,*74
1508943792.77,64475,11.06,74140.8,2.07,1.25,1.25,0,*7C
1508943794.03,64476,11.06,74140.8,2.05,1.17,1.17,0,*7D
1508943795.26,64477,11.06,74142.8,2.07,1.21,1.21,0,*7E
1508943796.49,64478,11.06,74142.0,2.07,1.25,1.33,0,*76
1508943797.73,64479,11.06,74138.5,2.11,1.25,1.33,0,*70
1508943798.97,64480,11.06,74132.3,2.11,1.37,1.37,0,*71
1508943800.2,64481,11.06,74124.8,2.11,1.25,1.29,0,*7C
1508943801.43,64482,11.06,74104.3,2.07,1.13,1.25,0,*71
1508943802.66,64483,11.06,74104.5,2.05,0.97,1.09,0,*41
1508943803.89,64484,11.06,74096.5,2.07,1.09,1.21,0,*78
1508943805.13,64485,11.06,74104.3,2.07,1.09,1.21,0,*79
1508943806.36,64486,11.06,74146.3,2.11,1.17,1.29,0,*7A
1508943807.6,64487,11.06,74166.8,2.07,1.21,1.33,0,*72
1508943808.81,64488,11.06,74146.0,2.07,0.75,0.87,0,*73
1508943810.05,64489,11.06,74134.8,2.05,0.75,0.95,0,*73
1508943811.28,64490,11.06,74134.8,2.07,1.13,1.33,0,*75
1508943812.52,64491,11.06,74132.3,2.07,1.21,1.33,0,*75
1508943813.75,64492,11.06,74132.3,2.07,1.13,1.25,0,*70
1508943815.01,64493,11.06,74140.0,2.05,1.29,1.29,0,*76
1508943816.28,64494,11.06,74134.8,2.05,1.29,1.21,0,*79
1508943817.5,64495,11.06,74136.3,2.07,1.25,1.25,0,*72
1508943818.76,64496,11.06,74128.8,2.05,1.21,1.29,0,*7B
1508943820.03,64497,11.06,74128.8,2.05,1.37,1.37,0,*72
1508943821.23,64498,11.06,74124.0,2.07,1.37,1.41,0,*7E
1508943822.46,64499,11.06,74130.5,2.07,1.37,1.37,0,*7E
1508943823.71,64500,11.06,74134.0,2.11,1.37,1.37,0,*78
1508943824.91,64501,11.06,74136.3,2.11,1.37,1.41,0,*78
1508943826.14,64502,11.06,74148.5,2.07,1.25,1.33,0,*7A
1508943827.35,64503,11.06,74148.8,2.07,1.01,1.09,0,*74
1508943828.55,64504,11.06,74144.5,2.07,1.01,1.13,0,*78
1508943829.75,64505,11.06,74148.8,2.07,1.01,1.13,0,*79
1508943830.98,64506,11.06,74152.3,2.07,1.13,1.21,0,*78
1508943832.19,64507,11.06,74154.5,2.07,1.01,1.09,0,*70
1508943833.42,64508,11.06,74152.3,2.07,1.09,1.09,0,*77
1508943834.65,64509,11.06,74148.8,2.07,1.09,1.21,0,*7C
1508943835.91,64510,11.06,74154.0,2.05,1.09,1.17,0,*73
1508943837.14,64511,11.06,74154.3,2.11,1.17,1.25,0,*79
1508943838.35,64512,11.06,74152.3,2.11,1.05,1.13,0,*7C
1508943839.58,64513,11.06,74154.3,2.11,1.25,1.25,0,*7A
1508943840.82,64514,11.06,74150.8,2.07,1.21,1.25,0,*7E
1508943842.05,64515,11.06,74154.8,2.05,1.05,1.17,0,*7A
1508943843.28,64516,11.06,74152.0,2.07,1.21,1.33,0,*7B
1508943844.52,64517,11.06,74156.3,2.07,1.33,1.33,0,*79
1508943845.78,64518,11.06,74150.0,2.05,1.21,1.29,0,*7C
1508943847.01,64519,11.06,74146.5,2.07,1.13,1.21,0,*76
1508943848.25,64520,11.06,74140.0,2.07,1.09,1.21,0,*77
1508943849.45,64521,11.06,74144.3,2.07,1.01,1.21,0,*7E
1508943850.68,64522,11.06,74150.3,2.07,1.09,1.13,0,*74
1508943851.91,64523,11.06,74130.3,2.07,1.13,1.25,0,*7B
1508943853.09,64524,11.06,74134.8,2.07,0.97,1.01,0,*47
1508943854.32,64525,11.06,74130.3,2.05,0.71,0.95,0,*70
1508943855.54,64526,11.06,74136.3,2.05,0.71,0.97,0,*71
1508943856.75,64527,11.06,74144.8,2.07,0.75,1.13,0,*4B
1508943857.99,64528,11.06,74140.8,2.05,0.63,1.17,0,*45
1508943859.22,64529,11.06,74144.3,2.07,0.79,1.21,0,*48
1508943860.47,64530,11.06,74128.8,2.05,0.95,1.33,0,*43
1508943861.7,64531,11.06,74142.0,2.07,1.09,1.25,0,*73
1508943862.9,64532,11.06,74140.5,2.11,1.01,1.17,0,*7E
1508943864.11,64533,11.06,74142.5,2.11,1.05,1.13,0,*7F
1508943865.34,64534,11.06,74152.0,2.07,1.13,1.25,0,*7D
1508943866.57,64535,11.06,74150.8,2.07,1.25,1.33,0,*7E
1508943867.81,64536,11.06,74152.3,2.07,1.33,1.33,0,*7A
1508943869.04,64537,11.06,74148.5,2.07,1.33,1.33,0,*7B
1508943870.28,64538,11.06,74150.3,2.07,1.33,1.33,0,*74
1508943871.51,64539,11.06,74148.5,2.07,1.33,1.33,0,*75
1508943872.75,64540,11.06,74132.3,2.07,1.33,1.33,0,*7B
1508943873.98,64541,11.06,74126.3,2.07,1.33,1.33,0,*7A
1508943875.22,64542,11.06,74100.8,2.07,1.33,1.37,0,*7D
1508943876.45,64543,11.06,74100.5,2.07,1.13,1.13,0,*78
1508943877.68,64544,11.06,74140.0,2.07,1.21,1.13,0,*7E
1508943878.92,64545,11.06,74144.3,2.11,1.29,1.25,0,*75
1508943880.15,64546,11.06,74144.5,2.11,1.25,1.25,0,*7A
1508943881.39,64547,11.06,74144.0,2.11,1.37,1.37,0,*7B
1508943882.63,64548,11.06,74144.8,2.11,1.29,1.29,0,*74
1508943883.87,64549,11.06,74124.5,2.11,1.17,1.29,0,*78
1508943885.09,64550,11.06,74130.0,2.13,0.91,1.05,0,*43
1508943886.32,64551,11.06,74140.5,2.11,0.79,0.91,0,*7A
1508943887.54,64552,11.06,74150.3,2.11,0.59,0.67,0,*72
1508943888.79,64553,11.06,74152.3,2.13,0.79,0.91,0,*7A
1508943890.0,64554,11.06,74148.0,2.11,0.67,0.71,0,*7E
1508943891.22,64555,11.06,74166.8,2.11,0.59,0.55,0,*74
1508943892.42,64556,11.06,74154.0,2.11,0.55,0.43,0,*7C
1508943893.64,64557,11.06,74156.5,2.11,0.29,0.51,0,*75
1508943894.86,64558,11.06,74162.8,2.07,0.25,0.47,0,*76
1508943896.05,64559,11.06,74158.3,2.07,0.05,0.47,0,*45
1508943897.23,64560,11.06,74156.0,2.07,-0.19,-0.11,0,*71
1508943898.41,64561,11.06,74136.0,2.07,-0.81,0.01,0,*6D
1508943899.63,64562,11.06,74132.0,2.05,-0.41,0.13,0,*53
1508943900.86,64563,11.06,74134.0,2.05,-0.49,0.21,0,*5B
1508943902.09,64564,11.06,74132.5,2.05,-0.37,0.21,0,*55
1508943903.31,64565,11.06,74136.0,2.05,-0.29,0.37,0,*5C
1508943904.53,64566,11.06,74128.8,2.05,0.09,0.63,0,*41
1508943905.71,64567,11.06,74128.3,2.07,0.01,0.87,0,*40
1508943906.93,64568,11.06,74136.8,2.07,0.47,0.91,0,*7A
1508943908.11,64569,11.06,74142.8,2.07,0.67,0.97,0,*7F
1508943909.33,64570,11.06,74148.0,2.07,0.87,1.13,0,*44
1508943910.55,64571,11.06,74136.5,2.05,0.83,1.05,0,*44
1508943911.75,64572,11.06,74134.0,2.07,0.91,1.01,0,*42
1508943912.95,64573,11.06,74146.0,2.07,0.87,1.01,0,*44
1508943914.17,64574,11.06,74150.3,2.05,0.87,1.05,0,*45
1508943915.36,64575,11.06,74146.5,2.07,0.87,0.97,0,*7C
1508943916.54,64576,11.06,74146.5,2.07,0.97,1.01,0,*40
1508943917.75,64577,11.06,74146.3,2.05,0.87,0.97,0,*7C
1508943918.98,64578,11.06,74140.5,2.05,0.97,1.09,0,*44
1508943920.23,64579,11.06,74136.0,2.05,0.95,1.21,0,*4D
1508943921.47,64580,11.06,74138.0,2.05,1.05,1.21,0,*73
1508943922.73,64581,11.06,74130.8,2.05,1.09,1.17,0,*7B
1508943923.99,64582,11.06,74136.5,2.05,1.09,1.17,0,*78
1508943925.22,64583,11.06,74136.8,2.07,1.13,1.21,0,*75
1508943926.48,64584,11.06,74146.5,2.05,1.09,1.17,0,*7E
1508943927.72,64585,11.06,74150.5,2.07,1.21,1.21,0,*72
1508943928.98,64586,11.06,74148.3,2.05,1.17,1.33,0,*75
1508943930.21,64587,11.06,74138.3,2.07,1.25,1.25,0,*70
1508943931.44,64588,11.06,74138.8,2.07,1.21,1.25,0,*7B
1508943932.67,64589,11.06,74138.0,2.07,1.09,1.21,0,*74
1508943933.9,64590,11.06,74138.8,2.05,1.05,1.09,0,*78
1508943935.13,64591,11.06,74134.3,2.05,0.97,1.09,0,*43
1508943936.35,64592,11.06,74146.3,2.05,0.87,0.97,0,*77
1508943937.55,64593,11.06,74152.3,2.07,1.01,1.13,0,*76
1508943938.78,64594,11.06,74146.8,2.07,1.13,1.25,0,*77
1508943940.02,64595,11.06,74150.3,2.07,1.17,1.33,0,*75
1508943941.24,64596,11.06,74154.0,2.07,1.25,1.25,0,*70
1508943942.47,64597,11.06,74154.0,2.07,1.13,1.25,0,*74
1508943943.64,64598,11.06,74148.3,2.07,0.97,1.01,0,*40
1508943944.88,64599,11.06,74150.8,2.07,1.09,1.21,0,*75
1508943946.11,64600,11.06,74144.0,2.07,1.21,1.13,0,*7D
1508943947.35,64601,11.06,74146.5,2.07,1.13,1.21,0,*7C
1508943948.58,64602,11.06,74138.0,2.07,1.21,1.25,0,*7A
1508943949.8,64603,11.06,74140.3,2.07,0.91,1.25,0,*41
1508943951.02,64604,11.06,74132.5,2.07,0.75,1.21,0,*48
1508943952.23,64605,11.06,74126.8,2.07,0.67,1.13,0,*4B
1508943953.45,64606,11.06,74106.0,2.07,0.75,1.13,0,*4B
1508943954.67,64607,11.06,74114.5,2.13,0.71,1.05,0,*4C
1508943955.86,64608,11.06,74124.3,2.11,0.71,1.01,0,*45
1508943957.06,64609,11.06,74124.8,2.07,1.01,1.13,0,*76
1508943958.26,64610,11.06,74120.5,2.07,0.95,1.01,0,*41
1508943959.5,64611,11.06,74118.5,2.05,0.87,0.87,0,*7E
1508943960.73,64612,11.06,74116.5,2.07,0.91,0.91,0,*7F
1508943961.92,64613,11.06,74104.5,2.07,0.87,0.97,0,*7F
1508943963.09,64614,11.06,74114.0,2.07,0.97,1.01,0,*47
1508943964.32,64615,11.06,74094.8,2.05,1.05,1.17,0,*79
1508943965.56,64616,11.06,74104.8,2.07,1.21,1.33,0,*78
1508943966.79,64617,11.06,74114.0,2.07,1.09,1.13,0,*71
1508943968.02,64618,11.06,74124.3,2.07,1.09,1.21,0,*7F
1508943969.25,64619,11.06,74134.3,2.07,1.09,1.13,0,*7F
1508943970.45,64620,11.06,74128.3,2.07,0.97,1.13,0,*43
1508943971.65,64621,11.06,74122.0,2.07,0.97,1.13,0,*42
1508943972.9,64622,11.06,74124.0,2.05,0.95,1.17,0,*45
1508943974.09,64623,11.06,74134.5,2.11,0.95,1.05,0,*42
1508943975.3,64624,11.06,74138.3,2.11,0.91,1.05,0,*41
1508943976.51,64625,11.06,74140.3,2.11,1.01,1.17,0,*7B
1508943977.74,64626,11.06,74138.8,2.11,1.17,1.25,0,*7E
1508943978.98,64627,11.06,74142.5,2.11,1.13,1.17,0,*7A
1508943980.18,64628,11.06,74132.8,2.07,1.01,1.09,0,*7E
1508943981.41,64629,11.06,74114.0,2.07,1.13,1.25,0,*72
1508943982.64,64630,11.06,74118.0,2.07,1.25,1.25,0,*7F
1508943983.87,64631,11.06,74108.5,2.11,1.25,1.25,0,*79
1508943985.11,64632,11.06,74104.3,2.11,1.17,1.29,0,*77
1508943986.34,64633,11.06,74102.0,2.11,1.17,1.37,0,*79
1508943987.58,64634,11.06,74134.0,2.11,1.29,1.29,0,*7C
1508943988.84,64635,11.06,74144.3,2.13,1.17,1.29,0,*72
1508943990.08,64636,11.06,74138.0,2.11,1.13,1.17,0,*7A
1508943991.29,64637,11.06,74136.3,2.11,1.05,1.17,0,*7C
1508943992.52,64638,11.06,74136.3,2.11,1.13,1.17,0,*74
1508943993.73,64639,11.06,74136.5,2.11,1.05,1.13,0,*76
1508943994.94,64640,11.06,74138.0,2.11,1.01,1.13,0,*7C
1508943996.18,64641,11.06,74138.0,2.11,1.13,1.25,0,*7B
1508943997.41,64642,11.06,74136.8,2.11,1.25,1.29,0,*71
1508943998.65,64643,11.06,74130.5,2.11,1.29,1.29,0,*7C
1508943999.88,64644,11.06,74138.0,2.11,1.25,1.25,0,*7B
1508944001.12,64645,11.06,74132.8,2.11,1.29,1.37,0,*75
1508944002.35,64646,11.06,74130.8,2.11,1.17,1.13,0,*7D
1508944003.59,64647,11.06,74124.8,2.11,1.25,1.17,0,*79
1508944004.77,64648,11.06,74124.3,2.11,1.05,1.05,0,*77
1508944005.95,64649,11.06,74134.3,2.11,1.05,1.05,0,*76
1508944007.19,64650,11.06,74136.5,2.11,1.13,1.17,0,*7A
1508944008.43,64651,11.06,74132.0,2.11,1.13,1.17,0,*7B
1508944009.6,64652,11.06,74146.8,2.07,1.01,1.01,0,*7B
1508944010.8,64653,11.06,74146.0,2.07,0.91,1.01,0,*42
1508944011.99,64654,11.06,74146.8,2.07,0.87,0.97,0,*7C
1508944013.22,64655,11.06,74144.5,2.07,0.91,1.09,0,*4C
1508944014.45,64656,11.06,74154.5,2.07,1.09,1.25,0,*71
1508944015.64,64657,11.06,74154.3,2.07,0.97,1.25,0,*46
1508944016.85,64658,11.06,74154.0,2.11,1.05,1.25,0,*74
1508944018.08,64659,11.06,74154.5,2.13,1.05,1.25,0,*77
1508944019.33,64660,11.06,74152.0,2.13,0.91,1.17,0,*40
1508944020.59,64661,11.06,74150.0,2.13,0.91,1.25,0,*40
1508944021.82,64662,11.06,74154.0,2.13,1.01,1.37,0,*78
1508944023.08,64663,11.06,74152.8,2.13,1.13,1.37,0,*7A
1508944024.31,64664,11.06,74152.5,2.13,1.05,1.29,0,*75
1508944025.54,64665,11.06,74148.3,2.13,1.01,1.17,0,*7D
1508944026.74,64666,11.06,74148.5,2.11,0.95,1.05,0,*43
1508944027.96,64667,11.06,74152.0,2.11,0.95,1.13,0,*45
1508944029.17,64668,11.06,74156.5,2.11,1.01,1.13,0,*76
1508944030.42,64669,11.06,74154.3,2.13,0.83,0.91,0,*75
1508944031.64,64670,11.06,74144.0,2.11,0.91,0.95,0,*78
1508944032.87,64671,11.06,74140.8,2.13,0.83,1.01,0,*44
1508944034.1,64672,11.06,74142.5,2.11,0.91,0.91,0,*7E
1508944035.33,64673,11.06,74136.5,2.11,0.79,0.91,0,*79
1508944036.53,64674,11.06,74140.5,2.11,0.91,1.05,0,*44
1508944037.73,64675,11.06,74138.3,2.11,0.83,1.05,0,*46
1508944038.97,64676,11.06,74132.3,2.11,0.91,1.13,0,*41
1508944040.19,64677,11.06,74136.0,2.11,0.95,1.17,0,*40
1508944041.41,64678,11.06,74142.8,2.13,0.83,1.05,0,*49
1508944042.63,64679,11.06,74136.3,2.11,0.79,0.95,0,*77
1508944043.86,64680,11.06,74144.3,2.11,0.71,0.91,0,*7D
1508944045.05,64681,11.06,74152.3,2.11,0.95,1.05,0,*4A
1508944046.26,64682,11.06,74154.5,2.11,0.91,1.05,0,*4D
1508944047.49,64683,11.06,74142.0,2.11,0.91,1.13,0,*4B
1508944048.71,64684,11.06,74120.5,2.11,0.95,1.13,0,*48
1508944049.94,64685,11.06,74126.0,2.11,0.91,1.13,0,*4D
1508944051.14,64686,11.06,74112.0,2.11,0.95,1.05,0,*4D
1508944052.35,64687,11.06,74076.3,2.11,1.01,1.25,0,*72
1508944053.59,64688,11.06,74074.0,2.11,1.13,1.37,0,*7D
1508944054.83,64689,11.06,74108.8,2.11,1.29,1.37,0,*75
1508944056.07,64690,11.06,74118.8,2.11,1.29,1.37,0,*7D
1508944057.33,64691,11.06,74120.3,2.13,1.13,1.17,0,*75
1508944058.54,64692,11.06,74130.5,2.11,1.01,1.17,0,*77
1508944059.76,64693,11.06,74122.8,2.11,0.91,0.95,0,*75
1508944060.99,64694,11.06,74112.3,2.11,0.91,0.95,0,*72
1508944062.19,64695,11.06,74112.0,2.11,0.91,1.01,0,*4F
1508944063.43,64696,11.06,74110.0,2.11,1.13,1.13,0,*74
1508944064.64,64697,11.06,74112.8,2.11,1.01,1.13,0,*76
1508944065.88,64698,11.06,74114.5,2.11,1.13,1.13,0,*7A
1508944067.11,64699,11.06,74130.0,2.11,1.17,1.29,0,*76
1508944068.35,64700,11.06,74138.0,2.11,1.13,1.17,0,*7E
1508944069.53,64701,11.06,74114.3,2.11,1.05,1.05,0,*7B
1508944070.73,64702,11.06,74116.5,2.07,0.97,0.91,0,*79
1508944071.96,64703,11.06,74120.8,2.07,1.09,1.13,0,*75
1508944073.2,64704,11.06,74122.5,2.07,1.21,1.33,0,*7A
1508944074.43,64705,11.06,74132.8,2.07,1.33,1.33,0,*78
1508944075.67,64706,11.06,74126.8,2.07,1.33,1.33,0,*7B
1508944076.89,64707,11.06,74138.3,2.07,1.25,1.25,0,*7A
1508944078.09,64708,11.06,74128.5,2.07,1.01,1.09,0,*7D
1508944079.33,64709,11.06,74132.8,2.11,1.25,1.25,0,*73
1508944080.53,64710,11.06,74140.0,2.11,1.37,1.41,0,*7A
1508944081.74,64711,11.06,74144.3,2.11,1.37,1.41,0,*7B
1508944082.97,64712,11.06,74146.0,2.11,1.25,1.29,0,*75
1508944084.2,64713,11.06,74140.3,2.11,1.25,1.29,0,*74
1508944085.44,64714,11.06,74138.3,2.07,1.33,1.33,0,*78
1508944086.67,64715,11.06,74132.5,2.11,1.25,1.29,0,*72
1508944087.91,64716,11.06,74126.3,2.11,1.29,1.37,0,*72
1508944089.15,64717,11.06,74128.3,2.11,1.29,1.37,0,*73
1508944090.39,64718,11.06,74136.8,2.11,1.29,1.37,0,*7C
1508944091.59,64719,11.06,74140.5,2.11,1.41,1.43,0,*70
1508944092.8,64720,11.06,74142.0,2.11,1.41,1.55,0,*7D
1508944094.0,64721,11.06,74138.8,2.11,1.41,1.43,0,*7B
1508944095.19,64722,11.06,74138.8,2.13,1.41,1.41,0,*78
1508944096.42,64723,11.06,74136.8,2.13,1.41,1.43,0,*7B
1508944097.64,64724,11.06,74140.0,2.13,1.41,1.51,0,*7F
1508944098.87,64725,11.06,74138.3,2.13,1.41,1.43,0,*7D
1508944100.1,64726,11.06,74136.5,2.13,1.37,1.41,0,*7D
1508944101.36,64727,11.06,74136.5,2.13,1.37,1.29,0,*72
1508944102.62,64728,11.06,74140.5,2.13,1.37,1.43,0,*71
1508944103.81,64729,11.06,74140.5,2.15,1.41,1.43,0,*77
1508944105.05,64730,11.06,74140.5,2.15,1.33,1.33,0,*7D
1508944106.22,64731,11.06,74138.3,2.15,1.41,1.41,0,*7C
1508944107.48,64732,11.06,74148.8,2.13,1.29,1.29,0,*79
1508944108.69,64733,11.06,74150.0,2.11,1.05,1.17,0,*79
1508944109.87,64734,11.06,74150.5,2.11,1.05,1.05,0,*7D
1508944111.08,64735,11.06,74150.0,2.11,1.13,1.05,0,*7B
1508944112.34,64736,11.06,74150.0,2.13,1.13,1.13,0,*7D
1508944113.57,64737,11.06,74152.5,2.13,1.05,1.13,0,*7B
1508944114.83,64738,11.06,74156.0,2.13,1.17,1.25,0,*72
1508944116.06,64739,11.06,74152.5,2.11,1.25,1.29,0,*7C
1508944117.3,64740,11.06,74154.3,2.11,1.17,1.29,0,*73
1508944118.53,64741,11.06,74148.0,2.11,1.25,1.29,0,*73
1508944119.79,64742,11.06,74142.3,2.13,1.29,1.37,0,*71
1508944121.06,64743,11.06,74138.3,2.13,1.37,1.37,0,*7F
1508944122.32,64744,11.06,74134.5,2.13,1.29,1.29,0,*78
1508944123.56,64745,11.06,74128.3,2.11,1.29,1.29,0,*7B
1508944124.8,64746,11.06,74128.3,2.11,1.37,1.29,0,*77
1508944126.06,64747,11.06,74126.8,2.13,1.37,1.37,0,*7B
1508944127.33,64748,11.06,74122.0,2.13,1.37,1.37,0,*74
1508944128.52,64749,11.06,74130.0,2.13,1.41,1.41,0,*75
1508944129.73,64750,11.06,74134.5,2.11,1.41,1.51,0,*7E
1508944130.93,64751,11.06,74144.8,2.11,1.41,1.43,0,*7C
1508944132.19,64752,11.06,74148.5,2.13,1.29,1.37,0,*70
1508944133.45,64753,11.06,74152.3,2.13,1.37,1.37,0,*7E
1508944134.72,64754,11.06,74138.0,2.13,1.37,1.37,0,*79